Location: Bakov nad Jizerou
(50.4784°N, 14.9394°E)
Time: 12:59:37
(UTC+00:00)

Cosmos 1536 Rocket - Pass Details

Date: 21 October 2021
Orbit: 605 x 632 km, 82.5° (Epoch: 29 November)

Event Time Altitude Azimuth Distance (km) Brightness Sun altitude
Rises 03:39:27 0° 138° (SE) 2,897 7.5 -18.7°
Reaches altitude 10° 03:42:40 10° 112° (ESE) 1,990 7.1 -18.2°
Maximum altitude 03:44:52 14° 82° (E) 1,754 7.1 -17.8°
Drops below altitude 10° 03:47:04 10° 52° (NE) 1,990 7.0 -17.5°
Sets 03:50:16 0° 27° (NNE) 2,895 7.4 -17.0°
